Simultaneous Nadir Overpasses (SNOs) Predictions

Prediction of SNOs between GOES-17 and TERRA Satellite Orbit:

Table of predicted SNOs for the next 14.0 days since TLE Epoch: 11/2/2024
Index Date Time (GOES-17) GOES-17 Lat,Lon TERRA Lat,Lon Distance(km) Time Diff (sec)
1 11/02/2024 16:34:04 -0.01,-104.72 -0.21,-103.64 122.18 80
2 11/03/2024 04:53:56 0.01,-104.66 -0.79,-108.47 432.68 80
3 11/05/2024 04:33:08 -0.03,-104.65 0.10,-104.09 63.48 80
4 11/05/2024 16:52:52 0.03,-104.70 0.93,-108.89 477.08 80
5 11/07/2024 16:37:23 0.04,-104.68 0.00,-104.52 19.03 80
6 11/10/2024 04:39:03 -0.05,-104.62 -0.11,-104.96 38.36 80
7 11/12/2024 04:18:11 -0.05,-104.61 0.80,-100.57 458.98 80
8 11/12/2024 16:37:54 0.05,-104.65 0.22,-105.36 81.40 80
9 11/14/2024 16:22:21 0.05,-104.64 -0.72,-100.97 416.76 80
10 11/15/2024 04:42:10 -0.04,-104.59 -0.28,-105.80 136.58 80
